Volver al catálogo

SATCOM 3 DEB

LostHEO
NORAD 29001·DEBRIS·🇺🇸 United States

Lanzado Dec 7, 1979 desde Cape Canaveral Space Force Station

Loading…

Próximos Pases (próximas 24 horas)

TLE

ObsoletoSource: Space-Track

Época: Aug 21, 2020, 14:00 UTC

1 29001U 79101D   20234.58360050 -.00000111  00000-0  10000-3 0  9996
2 29001   9.4438 288.5934 4638713  82.6349 325.9613  1.82625913 97388

Sigue SATCOM 3 DEB en tiempo real con AllMySat

Download on the App Store